TimeMDT,TemperatureF,Dew PointF,Humidity,Sea Level PressureIn,VisibilityMPH,Wind Direction,Wind SpeedMPH,Gust SpeedMPH,PrecipitationIn,Events,Conditions,WindDirDegrees,DateUTC
12:53 AM,57.0,53.1,87,30.01,10.0,Calm,Calm,-,N/A,,Clear,0,2013-06-27 06:53:00
1:53 AM,57.9,52.0,81,30.02,10.0,Calm,Calm,-,N/A,,Clear,0,2013-06-27 07:53:00
2:53 AM,55.0,51.1,86,30.03,10.0,Calm,Calm,-,N/A,,Clear,0,2013-06-27 08:53:00
3:53 AM,52.0,51.1,97,30.04,10.0,South,3.5,-,N/A,,Clear,190,2013-06-27 09:53:00
4:53 AM,52.0,50.0,93,30.05,10.0,Calm,Calm,-,N/A,,Clear,0,2013-06-27 10:53:00
5:53 AM,54.0,51.1,90,30.06,10.0,Calm,Calm,-,N/A,,Clear,0,2013-06-27 11:53:00
6:53 AM,63.0,55.9,78,30.06,10.0,Calm,Calm,-,N/A,,Clear,0,2013-06-27 12:53:00
7:53 AM,69.1,55.9,63,30.06,10.0,South,5.8,-,N/A,,Clear,180,2013-06-27 13:53:00
8:53 AM,73.0,55.9,55,30.06,10.0,SSW,15.0,-,N/A,,Clear,200,2013-06-27 14:53:00
9:53 AM,77.0,57.0,50,30.07,10.0,SW,13.8,-,N/A,,Clear,220,2013-06-27 15:53:00
10:53 AM,81.0,51.1,35,30.07,10.0,WSW,6.9,-,N/A,,Clear,240,2013-06-27 16:53:00
11:53 AM,82.0,50.0,33,30.08,10.0,NNW,10.4,26.5,N/A,,Clear,330,2013-06-27 17:53:00
12:53 PM,82.9,50.0,32,30.08,10.0,WNW,5.8,-,N/A,,Clear,290,2013-06-27 18:53:00
1:53 PM,84.0,52.0,33,30.07,10.0,NNW,6.9,-,N/A,,Clear,340,2013-06-27 19:53:00
2:53 PM,86.0,51.1,30,30.07,10.0,NW,8.1,-,N/A,,Clear,320,2013-06-27 20:53:00
3:53 PM,84.9,52.0,32,30.07,10.0,NNE,8.1,-,N/A,,Clear,20,2013-06-27 21:53:00
4:53 PM,84.0,53.1,34,30.08,10.0,North,10.4,-,N/A,,Clear,350,2013-06-27 22:53:00
5:53 PM,82.9,53.1,36,30.08,10.0,North,9.2,-,N/A,,Clear,10,2013-06-27 23:53:00
6:53 PM,81.0,55.0,41,30.07,10.0,NNE,16.1,-,N/A,,Clear,30,2013-06-28 00:53:00
7:53 PM,77.0,55.9,48,30.08,10.0,NE,10.4,-,N/A,,Clear,40,2013-06-28 01:53:00
8:53 PM,71.1,54.0,55,30.10,10.0,NE,6.9,-,N/A,,Clear,40,2013-06-28 02:53:00
9:53 PM,64.9,54.0,68,30.13,10.0,Calm,Calm,-,N/A,,Clear,0,2013-06-28 03:53:00
10:53 PM,59.0,53.1,81,30.15,10.0,Calm,Calm,-,N/A,,Clear,0,2013-06-28 04:53:00
11:53 PM,57.0,53.1,87,30.16,10.0,SW,3.5,-,N/A,,Clear,230,2013-06-28 05:53:00